Location: Rainwater Observatory
(33.2833°N, 89.3833°W)
Time: 13:26:12
(UTC-06:00)

Daily predictions for brighter satellites

Satellite Brightness Start Highest point End
(mag) Time Altitude Azimuth Time Altitude Azimuth Time Altitude Azimuth
CZ-4 R/B 4.3 18:11:14 10° SSW 18:14:35 24° W 18:18:01 10° NW
Cosmos 1954 Rocket 4.0 18:12:51 10° S 18:17:58 66° ESE 18:23:08 10° NNE
Meteor 1-18 Rocket 4.3 18:13:53 10° N 18:19:29 89° ENE 18:25:08 10° S
Cosmos 2322 Rocket 2.2 18:16:16 10° NNW 18:21:55 88° ENE 18:27:32 10° SSE
SJ-6B 3.5 18:18:35 10° SE 18:22:12 32° ENE 18:25:45 10° N
Cosmos 2151 Rocket 3.7 18:17:43 10° S 18:22:12 89° WSW 18:26:45 10° N
Meteor 1-28 Rocket 3.8 18:18:37 10° N 18:22:24 64° WNW 18:26:10 10° SSW
Okean 1 Rocket 3.9 18:19:22 10° SSE 18:23:16 30° E 18:27:10 10° NNE
Tiangong 2 1.4 18:20:39 10° NW 18:23:38 46° NNE 18:26:31 11° E
TSX-5 3.9 18:22:47 10° SSW 18:25:58 58° WNW 18:29:06 10° NNE
FENGYUN 3A 4.4 18:21:26 10° SE 18:26:02 30° ENE 18:30:40 10° N
Hubble Space Telescope 2.8 18:25:56 10° SSW 18:28:26 16° SSE 18:30:57 10° ESE
NOSS 8 (F) 4.4 18:24:58 10° SSW 18:28:37 74° ESE 18:32:06 10° NE
Gbstr 26 Del rocket 3.0 18:28:38 10° SW 18:32:34 65° NW 18:36:17 10° NE
NOAA 12 4.1 18:31:43 10° SSE 18:37:00 76° ENE 18:42:20 10° N
Cosmos 2322 4.2 18:32:51 10° N 18:38:10 38° ENE 18:43:24 10° SE
Cosmos 1238 Rocket 2.6 18:36:50 10° NNE 18:39:35 35° E 18:42:24 10° SSE
GPS 2-04 Rocket1 3.0 18:39:13 10° WSW 18:43:27 66° SSE 18:46:29 19° E
Cosmos 1025 Rocket 4.2 18:43:51 10° NNE 18:47:14 21° ENE 18:48:42 18° ESE
Meteor 1-13 Rocket 4.2 18:42:02 10° N 18:47:34 63° E 18:53:10 10° SSE
GEOS 3 Rocket 3.6 18:42:40 10° NE 18:47:56 78° ESE 18:53:14 10° SSW
METEOR-M 4.2 18:42:35 10° SSE 18:47:56 86° WSW 18:53:18 10° NNW
H-2A R/B 3.6 18:46:26 14° ESE 18:48:46 26° ENE 18:51:53 10° NNE
Cosmos 1536 3.0 18:45:04 10° SSE 18:48:53 46° E 18:52:43 10° NNE
Cosmos 1633 3.1 18:49:41 10° SSW 18:53:19 63° W 18:56:59 10° N
COSMOS 2428 3.7 18:48:40 10° N 18:53:23 26° ENE 18:55:38 21° E
Okean 1-7 Rocket 4.2 18:49:24 10° NNE 18:53:33 35° E 18:57:37 10° SE
Meteor 2-4 Rocket 3.9 18:51:20 10° N 18:56:35 44° ENE 19:01:41 10° SSE
Cosmos 1741 Rocket 3.9 18:56:15 10° S 19:01:27 77° ESE 19:06:41 10° NNE
Cosmos 1536 Rocket 4.4 18:57:36 10° NNW 19:01:58 54° W 19:06:19 10° S
Cosmos 2219 3.1 19:04:02 10° SSW 19:09:46 79° ESE 19:15:31 10° NNE
Cosmos 2360 Rocket 2.1 19:07:04 10° NNW 19:12:45 89° ENE 19:18:24 10° SSE
Cosmos 2219 Rocket 3.5 19:10:08 10° N 19:13:36 21° NE 19:13:36 21° NE
Cosmos 2227 Rocket 3.8 19:11:54 10° SSE 19:13:25 16° SE 19:13:25 16° SE
Meteor 1-11 Rocket 4.5 19:13:40 10° SSW 19:19:18 57° W 19:25:07 10° N
Cosmos 1570 Rocket 3.9 19:16:13 10° N 19:21:23 60° ENE 19:24:14 26° SE
BREEZE-M DEB (TANK) 3.7 19:18:50 10° WSW 19:22:55 34° NW 19:23:46 27° N
Resurs 01 Rocket 1.5 19:19:56 10° SSE 19:24:20 88° WSW 19:28:45 10° NNW
Abrixas rocket 3.2 19:26:05 10° WSW 19:29:18 41° NW 19:29:38 39° NNW
DELTA 2 R/B (1) 3.5 19:24:11 10° WNW 19:29:49 88° NNE 19:31:31 47° ESE
Cosmos 1610 Rocket 4.4 19:24:23 10° S 19:30:32 62° E 19:36:37 10° NNE
ATLAS CENTAUR R/B 1.6 19:25:36 10° SW 19:30:46 69° S 19:30:46 69° S
ALOS 3.1 19:28:45 10° S 19:33:17 51° W 19:37:50 10° NNW
OAO 3 Copernicus 4.4 19:29:21 10° W 19:34:24 67° SSW 19:35:29 51° SE
Cosmos 2327 Rocket 4.5 19:30:15 10° S 19:36:26 84° W 19:42:46 10° N
Spot 2 Rocket 3.7 19:34:12 10° S 19:39:12 68° WSW 19:44:16 10° NNW
Helios 1A 3.8 19:40:56 39° N 19:40:56 39° N 19:43:39 10° N
Resurs 1-3 3.9 19:37:43 10° S 19:42:03 65° WSW 19:46:26 10° NNW
Delta R/B 4.4 19:32:59 10° WSW 19:43:07 43° S 19:43:34 42° S
Cosmos 2333 Rocket 3.5 19:43:11 10° N 19:46:14 26° NNE 19:46:14 26° NNE
Cosmos 2208 Rocket 4.1 19:42:59 10° NNW 19:48:27 81° WSW 19:50:31 39° S
USA 229 DEB 3.8 19:47:01 10° NNW 19:54:03 56° ENE 19:54:33 55° ENE
USA 229 3.8 19:47:07 10° NNW 19:54:09 56° NE 19:54:36 55° ENE
OTV 4 3.6 19:52:33 10° SW 19:52:48 12° SW 19:52:48 12° SW
Helios 1B rocket 3.2 19:54:33 31° NNW 19:56:11 51° WNW 20:00:11 10° SSW
Tiangong 2 4.1 19:57:38 10° W 19:58:32 15° WSW 19:58:32 15° WSW
Hubble Space Telescope 3.1 20:05:26 10° SW 20:06:47 18° SW 20:06:47 18° SW
BREEZE-M DEB (TANK) 3.7 20:15:01 10° NW 20:17:20 50° NW 20:17:20 50° NW
Cosmos 2154 Rocket 4.4 20:21:42 10° SSW 20:27:56 59° W 20:34:12 10° N
Atlas Centaur 2 4.3 20:23:53 10° SW 20:26:14 19° SSW 20:26:14 19° SSW
Cosmos 2285 Rocket 4.5 20:26:23 10° NNW 20:32:38 56° WSW 20:32:47 56° WSW
COSMOS 2428 4.0 20:32:32 10° NW 20:37:40 36° WSW 20:37:44 36° WSW
Cosmos 2237 Rocket 4.2 20:36:13 10° NNW 20:37:45 19° NNW 20:37:45 19° NNW
Cosmos 2219 Rocket 4.2 20:53:09 10° NW 20:55:22 23° NW 20:55:22 23° NW
